Weather History for Phoenix Deer Valley, AZ

Change the Weather History Date:

Wednesday, November 2, 2011

  Actual Average Record
Temperature  
Mean Temperature 66 °F -  
Max Temperature 77 °F 74 °F 88 °F (1999)
Min Temperature 54 °F 54 °F 46 °F (2004)
Growing Degree Days 16 (Base 50)    
Moisture  
Dew Point 6 °F    
Average Humidity 10    
Maximum Humidity 15    
Minimum Humidity 5    
Precipitation  
Precipitation 0.00 in - - ()
Sea Level Pressure  
Sea Level Pressure 30.04 in    
Wind  
Wind Speed 11 mph (North)    
Max Wind Speed 23 mph    
Max Gust Speed 30 mph    
Visibility 10 miles    
Events      
Averages and records for this station are not official NWS values.
T = Trace of Precipitation, MM = Missing Value Source: NWS Daily Summary

Daily Weather History Graph

Daily Weather History Graph

Search for Another Location

Airport:

Trip Planner

Search our weather history database for the weather conditions in past years. The results will help you decide how hot, cold, wet, or windy it might be!

Date:

Astronomy

Nov. 02, 2011 Rise Set
Actual Time 6:48 AM MST 5:35 PM MST
Civil Twilight 6:22 AM MST 6:00 PM MST
Nautical Twilight 5:52 AM MST 6:30 PM MST
Astronomical Twilight 5:23 AM MST 6:59 PM MST
Moon 1:10 PM MST (11/2) No Moon Set
Length of Visible Light 11h 38m
Length of Day
10h 47m
Waxing Crescent, 51% of the Moon is Illuminated
Nov 2
Waxing Crescent
Nov 10
Full
Nov 18
Last Quarter
Nov 24
New
Dec 2
First Quarter

Hourly Weather History & Observations

Time (MST) Temp. Dew Point Humidity Pressure Visibility Wind Dir Wind Speed Gust Speed Precip Events Conditions
12:53 AM 68.0 °F 19.0 °F 15% 29.91 in 10.0 mi NNW 15.0 mph - N/A   Clear
1:53 AM 66.9 °F 14.0 °F 13% 29.92 in 10.0 mi North 13.8 mph 21.9 mph N/A   Clear
2:53 AM 64.0 °F 10.0 °F 12% 29.94 in 10.0 mi NNW 11.5 mph - N/A   Clear
3:53 AM 61.0 °F 10.0 °F 13% 29.96 in 10.0 mi NNW 9.2 mph - N/A   Clear
4:53 AM 57.9 °F 9.0 °F 14% 29.99 in 10.0 mi North 4.6 mph - N/A   Clear
5:53 AM 57.0 °F 5.0 °F 12% 30.02 in 10.0 mi NNE 9.2 mph - N/A   Clear
6:53 AM 54.0 °F 6.1 °F 15% 30.06 in 10.0 mi North 6.9 mph - N/A   Clear
7:53 AM 57.9 °F 6.1 °F 13% 30.09 in 10.0 mi North 17.3 mph - N/A   Clear
8:53 AM 60.1 °F 3.9 °F 11% 30.10 in 10.0 mi North 23.0 mph 29.9 mph N/A   Clear
9:53 AM 66.0 °F 5.0 °F 9% 30.12 in 10.0 mi North 16.1 mph 25.3 mph N/A   Clear
10:53 AM 70.0 °F 3.9 °F 7% 30.12 in 10.0 mi NNW 13.8 mph - N/A   Clear
11:53 AM 72.0 °F -0.0 °F 6% 30.09 in 10.0 mi NE 8.1 mph - N/A   Clear
12:53 PM 73.0 °F -0.0 °F 6% 30.07 in 10.0 mi East 5.8 mph - N/A   Clear
1:53 PM 75.0 °F -0.0 °F 5% 30.05 in 10.0 mi Variable 3.5 mph - N/A   Clear
2:53 PM 75.9 °F -0.0 °F 5% 30.04 in 10.0 mi NNE 8.1 mph - N/A   Clear
3:53 PM 77.0 °F 3.0 °F 6% 30.03 in 10.0 mi North 12.7 mph 19.6 mph N/A   Clear
4:53 PM 75.0 °F 5.0 °F 7% 30.03 in 10.0 mi North 10.4 mph - N/A   Clear
5:53 PM 71.1 °F 6.1 °F 8% 30.03 in 10.0 mi North 10.4 mph - N/A   Clear
6:53 PM 69.1 °F 7.0 °F 9% 30.05 in 10.0 mi North 12.7 mph - N/A   Clear
7:53 PM 66.0 °F 7.0 °F 10% 30.05 in 10.0 mi NNE 9.2 mph - N/A   Clear
8:53 PM 63.0 °F 7.0 °F 11% 30.07 in 10.0 mi NNE 8.1 mph - N/A   Clear
9:53 PM 62.1 °F 6.1 °F 11% 30.08 in 10.0 mi NE 8.1 mph - N/A   Clear
10:53 PM 60.1 °F 6.1 °F 12% 30.08 in 10.0 mi Calm Calm - N/A   Clear
11:53 PM 57.9 °F 7.0 °F 13% 30.07 in 10.0 mi NNE 8.1 mph - N/A   Clear